EJHELI EINC-EIME

Flight info

Callsign EJHELI
Flight time 0h 10m
Altitude 3500
Route KLY
Aircraft A139/L-SDFGY/C

Departure

Time 2026-04-13 17:38
Airport Newcastle Aerodrome (EINC)

Arrival

Time 2026-04-13 17:48
Airport Casement Air Base (EIME)
Time Latitude Longitude Altitude Speed Heading
2026-04-13 17:37 53.07303 -6.03659 5 ft 1 kts 128°
2026-04-13 17:37 53.07274 -6.03639 35 ft 15 kts 171°
2026-04-13 17:38 53.07074 -6.03655 369 ft 54 kts 185°
2026-04-13 17:38 53.06878 -6.04381 835 ft 96 kts 257°
2026-04-13 17:38 53.07082 -6.05671 1052 ft 125 kts 274°
2026-04-13 17:38 53.07280 -6.07081 1186 ft 126 kts 277°
2026-04-13 17:39 53.07732 -6.08368 1295 ft 138 kts 310°
2026-04-13 17:39 53.08621 -6.08999 1379 ft 138 kts 338°
2026-04-13 17:39 53.09531 -6.09448 1297 ft 138 kts 332°
2026-04-13 17:39 53.10446 -6.10010 1282 ft 139 kts 333°
2026-04-13 17:40 53.11350 -6.10578 1295 ft 138 kts 333°
2026-04-13 17:40 53.12264 -6.11150 1289 ft 139 kts 333°
2026-04-13 17:40 53.13164 -6.11707 1278 ft 138 kts 332°
2026-04-13 17:40 53.14066 -6.12261 1283 ft 138 kts 334°
2026-04-13 17:41 53.14959 -6.12874 1383 ft 140 kts 332°
2026-04-13 17:41 53.15840 -6.13432 1552 ft 127 kts 337°
2026-04-13 17:41 53.16717 -6.13667 1591 ft 132 kts 346°
2026-04-13 17:41 53.17642 -6.13743 1669 ft 132 kts 356°
2026-04-13 17:42 53.18572 -6.13727 1707 ft 135 kts 356°
2026-04-13 17:42 53.19536 -6.13713 1686 ft 142 kts 360°
2026-04-13 17:42 53.20523 -6.13408 1760 ft 151 kts
2026-04-13 17:42 53.21605 -6.13171 1729 ft 160 kts
2026-04-13 17:43 53.22709 -6.13294 1746 ft 160 kts 342°
2026-04-13 17:43 53.23679 -6.14227 1576 ft 167 kts 310°
2026-04-13 17:43 53.24451 -6.15693 1468 ft 165 kts 303°
2026-04-13 17:43 53.25161 -6.17201 1289 ft 167 kts 301°
2026-04-13 17:44 53.25884 -6.18680 1204 ft 162 kts 306°
2026-04-13 17:44 53.26624 -6.20053 1246 ft 154 kts 301°
2026-04-13 17:44 53.27111 -6.21587 1277 ft 150 kts 282°
2026-04-13 17:44 53.27237 -6.23326 1225 ft 150 kts 262°
2026-04-13 17:45 53.27256 -6.25045 1287 ft 146 kts 268°
2026-04-13 17:45 53.27443 -6.26704 1343 ft 147 kts 277°
2026-04-13 17:45 53.27791 -6.28311 1459 ft 145 kts 288°
2026-04-13 17:45 53.28253 -6.29756 1669 ft 140 kts 293°
2026-04-13 17:46 53.28770 -6.31180 1671 ft 148 kts 294°
2026-04-13 17:46 53.29285 -6.32701 1628 ft 152 kts 290°
2026-04-13 17:46 53.29627 -6.34337 1672 ft 147 kts 274°
2026-04-13 17:46 53.29754 -6.36056 1534 ft 154 kts 266°
2026-04-13 17:47 53.29780 -6.37826 1383 ft 147 kts 261°
2026-04-13 17:47 53.29761 -6.39465 1349 ft 133 kts 261°
2026-04-13 17:47 53.29840 -6.40915 1344 ft 116 kts 269°
2026-04-13 17:47 53.29987 -6.42140 1191 ft 97 kts 267°
2026-04-13 17:48 53.30106 -6.43147 950 ft 80 kts 255°
2026-04-13 17:48 53.30072 -6.43987 690 ft 67 kts 281°
2026-04-13 17:48 53.30262 -6.44516 528 ft 47 kts 350°
2026-04-13 17:48 53.30508 -6.44385 370 ft 23 kts 18°
2026-04-13 17:49 53.30595 -6.44310 326 ft 9 kts 23°
2026-04-13 17:49 53.30640 -6.44240 324 ft 6 kts 39°
2026-04-13 17:49 53.30674 -6.44186 298 ft 0 kts 20°
2026-04-13 17:52 53.30673 -6.44186 297 ft 0 kts 20°
2026-04-13 17:52 53.30676 -6.44186 300 ft 1 kts 14°
2026-04-13 17:52 53.30709 -6.44123 679 ft 41 kts 58°
2026-04-13 17:52 53.31129 -6.43495 1082 ft 124 kts 30°
2026-04-13 17:53 53.32100 -6.42977 1135 ft 176 kts
2026-04-13 17:53 53.33301 -6.43367 1151 ft 176 kts 328°
2026-04-13 17:53 53.34301 -6.44362 1229 ft 156 kts 314°
2026-04-13 17:53 53.34957 -6.45740 969 ft 148 kts 288°
2026-04-13 17:54 53.35244 -6.47235 741 ft 117 kts 264°
2026-04-13 17:54 53.35177 -6.48401 412 ft 101 kts 278°
2026-04-13 17:54 53.35354 -6.49186 347 ft 63 kts 230°
2026-04-13 17:54 53.35154 -6.48796 352 ft 74 kts 53°
2026-04-13 17:55 53.35470 -6.48847 231 ft 6 kts 320°
2026-04-13 17:55 53.35491 -6.48885 166 ft 2 kts 323°
2026-04-13 17:55 53.35497 -6.48893 156 ft 0 kts 333°